Weather History for Aberdeen / Amory, MS

Change the Weather History Date:

Monday, November 19, 2012

  Actual Average (KCBM) Record (KCBM)
Temperature  
Mean Temperature 50 °F -  
Max Temperature 69 °F 61 °F 73 °F (1999)
Min Temperature 32 °F 41 °F 24 °F (2008)
Degree Days  
Heating Degree Days 14    
Moisture  
Dew Point 33 °F    
Average Humidity 57    
Maximum Humidity 61    
Minimum Humidity 52    
Precipitation  
Precipitation 0.00 in - - ()
Sea Level Pressure  
Sea Level Pressure 30.28 in    
Wind  
Wind Speed 1 mph ()    
Max Wind Speed 7 mph    
Max Gust Speed -    
Visibility 3.8 miles    
Events      
Averages and records for this station are not official NWS values.
T = Trace of Precipitation, MM = Missing Value Source: Averaged Metar Reports

Daily Weather History Graph

Daily Weather History Graph

Search for Another Location

Airport:

Trip Planner

Search our weather history database for the weather conditions in past years. The results will help you decide how hot, cold, wet, or windy it might be!

Date:

Astronomy

Nov. 19, 2012 Rise Set
Actual Time 6:30 AM CST 4:48 PM CST
Civil Twilight 6:03 AM CST 5:14 PM CST
Nautical Twilight 5:33 AM CST 5:45 PM CST
Astronomical Twilight 5:03 AM CST 6:15 PM CST
Moon 11:39 AM CST (11/19) 11:07 PM CST (11/19)
Length of Visible Light 11h 11m
Length of Day
10h 17m
Waxing Crescent, 41% of the Moon is Illuminated
Nov 19
Waxing Crescent
Nov 20
First Quarter
Nov 28
Full
Dec 6
Last Quarter
Dec 13
New

Hourly Weather History & Observations

Time (CST) Temp. Dew Point Humidity Pressure Visibility Wind Dir Wind Speed Gust Speed Precip Events Conditions
12:15 AM 35.6 °F 23.0 °F 60% 30.33 in 2.0 mi Calm Calm - N/A   Haze
12:35 AM 35.6 °F 23.0 °F 60% 30.33 in 3.0 mi Calm Calm - N/A   Haze
12:55 AM 33.8 °F 21.2 °F 60% 30.33 in 3.0 mi Calm Calm - N/A   Haze
1:15 AM 33.8 °F 21.2 °F 60% 30.32 in 3.0 mi Calm Calm - N/A   Haze
1:35 AM 35.6 °F 21.2 °F 56% 30.31 in 5.0 mi North - - N/A   Haze
1:55 AM 33.8 °F 21.2 °F 60% 30.31 in 5.0 mi Calm Calm - N/A   Haze
2:15 AM 33.8 °F 21.2 °F 60% 30.31 in 5.0 mi North - - N/A   Haze
2:35 AM 33.8 °F 19.4 °F 56% 30.31 in 5.0 mi North - - N/A   Haze
2:55 AM 33.8 °F 21.2 °F 60% 30.31 in 5.0 mi Calm Calm - N/A   Haze
3:15 AM 33.8 °F 19.4 °F 56% 30.31 in 1.8 mi Calm Calm - N/A   Haze
3:35 AM 33.8 °F 21.2 °F 60% 30.31 in 5.0 mi Calm Calm - N/A   Haze
3:55 AM 32.0 °F 19.4 °F 60% 30.31 in 3.0 mi North - - N/A   Haze
4:15 AM 32.0 °F 19.4 °F 60% 30.31 in 1.2 mi North - - N/A   Haze
4:35 AM 32.0 °F 19.4 °F 60% 30.31 in 4.0 mi North - - N/A   Haze
4:55 AM 32.0 °F 19.4 °F 60% 30.31 in 2.5 mi Calm Calm - N/A   Haze
5:15 AM 32.0 °F 19.4 °F 60% 30.31 in 5.0 mi Calm Calm - N/A   Haze
5:35 AM 32.0 °F 19.4 °F 60% 30.32 in 6.0 mi Calm Calm - N/A   Haze
5:55 AM 33.8 °F 19.4 °F 56% 30.31 in 5.0 mi North - - N/A   Haze
6:15 AM 33.8 °F 19.4 °F 56% 30.32 in 3.0 mi North - - N/A   Haze
6:35 AM 32.0 °F 19.4 °F 60% 30.32 in 3.0 mi North - - N/A   Haze
6:55 AM 32.0 °F 19.4 °F 60% 30.33 in 3.0 mi Calm Calm - N/A   Haze
7:15 AM 33.8 °F 19.4 °F 56% 30.33 in 2.5 mi North - - N/A   Haze
7:35 AM 37.4 °F 23.0 °F 56% 30.33 in 4.0 mi Calm Calm - N/A   Haze
7:55 AM 39.2 °F 26.6 °F 61% 30.33 in 5.0 mi Calm Calm - N/A   Haze
8:15 AM 42.8 °F 28.4 °F 57% 30.33 in 5.0 mi Calm Calm - N/A   Haze
8:35 AM 44.6 °F 32.0 °F 61% 30.34 in 4.0 mi Calm Calm - N/A   Haze
8:55 AM 48.2 °F 33.8 °F 58% 30.34 in 4.0 mi Calm Calm - N/A   Haze
9:15 AM 53.6 °F 37.4 °F 54% 30.34 in 4.0 mi Calm Calm - N/A   Haze
9:35 AM 57.2 °F 41.0 °F 55% 30.34 in 3.0 mi Calm Calm - N/A   Haze
9:55 AM 59.0 °F 42.8 °F 55% 30.35 in 3.0 mi NNW 3.5 mph - N/A   Haze
10:15 AM 60.8 °F 44.6 °F 55% 30.34 in 5.0 mi NNW 6.9 mph - N/A   Haze
10:35 AM 62.6 °F 46.4 °F 55% 30.34 in 5.0 mi NNW 5.8 mph - N/A   Haze
10:55 AM 64.4 °F 46.4 °F 52% 30.34 in 4.0 mi NNW 6.9 mph - N/A   Haze
11:15 AM 64.4 °F 48.2 °F 56% 30.32 in 5.0 mi NNW 4.6 mph - N/A   Haze
11:35 AM 66.2 °F 48.2 °F 52% 30.31 in 5.0 mi North 4.6 mph - N/A   Haze
11:55 AM 66.2 °F 50.0 °F 56% 30.30 in 5.0 mi Calm Calm - N/A   Haze
12:15 PM 68.0 °F 51.8 °F 56% 30.29 in 5.0 mi North 3.5 mph - N/A   Haze
12:35 PM 68.0 °F 51.8 °F 56% 30.29 in 5.0 mi North - - N/A   Haze
12:55 PM 68.0 °F 51.8 °F 56% 30.28 in 5.0 mi Calm Calm - N/A   Haze
1:15 PM 69.8 °F 51.8 °F 53% 30.27 in 5.0 mi Calm Calm - N/A   Haze
1:35 PM 69.8 °F 53.6 °F 56% 30.26 in 4.0 mi WSW 3.5 mph - N/A   Haze
1:55 PM 69.8 °F 53.6 °F 56% 30.25 in 5.0 mi West 3.5 mph - N/A   Haze
2:15 PM 69.8 °F 53.6 °F 56% 30.24 in 4.0 mi Calm Calm - N/A   Haze
2:35 PM 69.8 °F 51.8 °F 53% 30.23 in 5.0 mi Calm Calm - N/A   Haze
2:55 PM 69.8 °F 51.8 °F 53% 30.23 in 4.0 mi NNW 5.8 mph - N/A   Haze
3:15 PM 68.0 °F 51.8 °F 56% 30.23 in 4.0 mi Calm Calm - N/A   Haze
3:35 PM 66.2 °F 50.0 °F 56% 30.22 in 3.0 mi Calm Calm - N/A   Haze
3:55 PM 66.2 °F 48.2 °F 52% 30.22 in 3.0 mi Calm Calm - N/A   Haze
4:15 PM 64.4 °F 48.2 °F 56% 30.21 in 3.0 mi Calm Calm - N/A   Haze
4:35 PM 62.6 °F 44.6 °F 52% 30.21 in 3.0 mi Calm Calm - N/A   Haze
4:55 PM 57.2 °F 41.0 °F 55% 30.21 in 3.0 mi Calm Calm - N/A   Haze
5:15 PM 53.6 °F 37.4 °F 54% 30.21 in 5.0 mi Calm Calm - N/A   Haze
5:35 PM 50.0 °F 33.8 °F 54% 30.21 in 5.0 mi Calm Calm - N/A   Haze
5:55 PM 50.0 °F 33.8 °F 54% 30.22 in 4.0 mi Calm Calm - N/A   Haze
6:15 PM 48.2 °F 32.0 °F 54% 30.23 in 5.0 mi North - - N/A   Haze
6:35 PM 46.4 °F 32.0 °F 57% 30.23 in 4.0 mi Calm Calm - N/A   Haze
6:55 PM 46.4 °F 32.0 °F 57% 30.23 in 4.0 mi Calm Calm - N/A   Haze
7:15 PM 44.6 °F 30.2 °F 57% 30.24 in 3.0 mi North - - N/A   Haze
7:35 PM 44.6 °F 30.2 °F 57% 30.24 in 4.0 mi North - - N/A   Haze
7:55 PM 42.8 °F 30.2 °F 61% 30.24 in 3.0 mi Calm Calm - N/A   Haze
8:15 PM 42.8 °F 30.2 °F 61% 30.24 in 3.0 mi Calm Calm - N/A   Haze
8:35 PM 42.8 °F 28.4 °F 57% 30.24 in 1.2 mi Calm Calm - N/A   Haze
8:55 PM 42.8 °F 28.4 °F 57% 30.23 in 4.0 mi Calm Calm - N/A   Haze
9:15 PM 42.8 °F 28.4 °F 57% 30.23 in 3.0 mi Calm Calm - N/A   Haze
9:35 PM 41.0 °F 28.4 °F 61% 30.23 in 3.0 mi North - - N/A   Haze
9:55 PM 39.2 °F 26.6 °F 61% 30.22 in 1.8 mi Calm Calm - N/A   Haze
10:15 PM 39.2 °F 26.6 °F 61% 30.21 in 3.0 mi Calm Calm - N/A   Haze
10:35 PM 39.2 °F 26.6 °F 61% 30.21 in 3.0 mi North - - N/A   Haze
10:55 PM 39.2 °F 26.6 °F 61% 30.22 in 3.0 mi Calm Calm - N/A   Haze
11:15 PM 39.2 °F 26.6 °F 61% 30.22 in 1.8 mi North - - N/A   Haze
11:35 PM 39.2 °F 26.6 °F 61% 30.22 in 3.0 mi Calm Calm - N/A   Haze
11:55 PM 39.2 °F 26.6 °F 61% 30.22 in 4.0 mi Calm Calm - N/A   Haze